Flag for Germany Weather past 2 weeks in Schwerin, Mecklenburg-Western Pomerania, Germany

Now
47 °F

Overcast.


Feels Like: 44 °F
Forecast: 37 / 64 °F
Wind: 6 mph from Northwest

Location: Schwerin


UV Index: 3 (Moderate)

Visibility: 25 mi


Pressure: 29.79 "Hg

Humidity: 77%

Dew point: 40 °F

Location of SchwerinLocation

Historic Weather in Schwerin

°F

Schwerin temperature yesterday

Maximum temperature yesterday: 59 °F (at 5:00 PM)
Minimum temperature yesterday: 38 °F (at 6:00 AM)
Average temperature yesterday: 48 °F

Past Weeks' High & Low Weather Summary

 TemperatureHumidityPressure
High65 °F (Apr 7, 6:00 PM)100% (Apr 6, 3:00 AM)30.47 "Hg (Apr 6, 3:00 AM)
Low35 °F (Apr 16, 6:00 AM)35% (Apr 17, 5:00 PM)29.65 "Hg (Apr 14, 7:00 AM)
Average48 °F78%29.99 "Hg
* Reported Apr 3 11:00 AM — Apr 18 11:00 AM, Schwerin, Weather by CustomWeather, © 2014

Note: Actual official high and low records may vary slightly from our data, if they occured in-between our weather recording intervals... More about our weather records

Advertising

Historic Weather Conditions — Data for Previous 24 hours

 ConditionsComfort  
Time TempWeatherWind HumidityBarometerVisibility
11:00 AM
Apr 18
46 °FOvercast.6 mph75%29.77 "Hg28 mi
10:00 AM46 °FOvercast.6 mph75%29.76 "Hg25 mi
9:00 AM44 °FOvercast.5 mph82%29.75 "Hg28 mi
8:00 AM43 °FScattered clouds.6 mph92%29.74 "Hg19 mi
7:00 AM40 °FPassing clouds.5 mph94%29.73 "Hg16 mi
6:00 AM42 °FOvercast.7 mph90%29.72 "Hg17 mi
5:00 AM43 °FOvercast.6 mph92%29.73 "Hg12 mi
4:00 AM43 °FPassing clouds.6 mph94%29.74 "Hg10 mi
3:00 AM44 °FLight rain. Overcast.6 mph94%29.75 "Hg11 mi
2:00 AM45 °FLight freezing rain. Overcast.5 mph93%29.75 "Hg6 mi
6:00 PM
Apr 17
57 °FOvercast.8 mph37%29.93 "Hg22 mi
5:00 PM59 °FOvercast.7 mph35%29.96 "Hg12 mi
4:00 PM59 °FOvercast.8 mph38%30.01 "Hg9 mi
3:00 PM58 °FOvercast.7 mph36%30.05 "Hg11 mi
2:00 PM57 °FOvercast.8 mph39%30.09 "Hg14 mi
1:00 PM56 °FOvercast.8 mph40%30.14 "Hg14 mi
12:00 PM54 °FOvercast.6 mph45%30.18 "Hg19 mi
Weather by CustomWeather, © 2014

See weather overview